This is the latest recevied weather packets stored in our database for station/object N8GD. If no packets are shown the sender has not sent any weather packets the latest 10 day(s).
| Time | Temp. | Humidity | Pressure | Rain* | Wind** | Luminosity | Snow |
|---|---|---|---|---|---|---|---|
| 1777763275 | 5.56° C | 72% | 1017.5 hPa | 0 mm | - | - | - |
| 1777762375 | 5.56° C | 69% | 1017.5 hPa | 0 mm | - | - | - |
| 1777762328 | 5.56° C | 69% | 1017.5 hPa | 0 mm | - | - | - |
| 1777761474 | 5.56° C | 70% | 1017.4 hPa | 0 mm | - | - | - |
| 1777760575 | 6.11° C | 70% | 1017.4 hPa | 0 mm | - | - | - |
| 1777759674 | 6.11° C | 71% | 1017.4 hPa | 0 mm | - | - | - |
| 1777758776 | 6.11° C | 70% | 1017.2 hPa | 0 mm | - | - | - |
| 1777758736 | 6.11° C | 72% | 1017.2 hPa | 0 mm | - | - | - |
| 1777757874 | 6.11° C | 71% | 1017.3 hPa | 0 mm | - | - | - |
| 1777756974 | 6.11° C | 73% | 1017.2 hPa | 0 mm | - | - | - |
| 1777756075 | 5.56° C | 76% | 1017.2 hPa | 0 mm | - | - | - |
| 1777755174 | 5.56° C | 79% | 1017.1 hPa | 0 mm | - | - | - |
| 1777754274 | 5.56° C | 76% | 1017 hPa | 0 mm | - | - | - |
| 1777753375 | 5.56° C | 75% | 1017 hPa | 0 mm | - | - | - |
| 1777752474 | 5.56° C | 74% | 1017.1 hPa | 0 mm | - | - | - |
| 1777751575 | 5.56° C | 73% | 1017.2 hPa | 0 mm | - | - | - |
| 1777750676 | 5.56° C | 74% | 1017.3 hPa | 0 mm | - | - | - |
| 1777749775 | 5.56° C | 73% | 1017.4 hPa | 0 mm | - | - | - |
| 1777749716 | 5.56° C | 73% | 1017.4 hPa | 0 mm | - | - | - |
| 1777748876 | 6.11° C | 76% | 1017.4 hPa | 0 mm | - | - | - |
| 1777747975 | 6.11° C | 77% | 1017.4 hPa | 0 mm | - | - | - |
| 1777747075 | 6.11° C | 79% | 1017.5 hPa | 0 mm | - | - | - |
| 1777746175 | 5.56° C | 80% | 1017.5 hPa | 0 mm | - | - | - |
| 1777745275 | 6.11° C | 82% | 1017.5 hPa | 0.25 mm | - | - | - |
| 1777744374 | 5.56° C | 88% | 1017.4 hPa | 0.25 mm | - | - | - |
* Rain latest hour (hover to see other rain measurements)
** Current wind speed in m/s (hover to see current wind gust speed)